Location: Koussan�
(15.2012°N, 12.5548°W)
Time: 01:49:06
(UTC+00:00)

CZ-4 R/B - Pass Details

Date: 20 October 2020
Orbit: 531 x 598 km, 97.7° (Epoch: 25 November)

Event Time Altitude Azimuth Distance (km) Brightness Sun altitude
Rises 18:48:52 0° 133° (SE) 2,774 4.5 -6.1°
Reaches altitude 10° 18:51:54 10° 108° (ESE) 1,862 3.5 -6.8°
Maximum altitude 18:54:04 14° 75° (ENE) 1,593 3.0 -7.3°
Drops below altitude 10° 18:56:13 10° 42° (NE) 1,841 3.5 -7.9°
Sets 18:59:10 0° 17° (NNE) 2,721 4.6 -8.6°
